Simultaneous Nadir Overpasses (SNOs) Predictions

Prediction of SNOs between FY3D and NOAA-19 Satellite Orbit:

Table of predicted SNOs for the next 14.0 days since TLE Epoch: 3/17/2024
Index Date (FY3D) Time (FY3D) Lat,Lon (FY3D) SZA (FY3D ) Date (NOAA-19) Time (NOAA-19) Lat,Lon (NOAA-19) SZA (NOAA-19 ) Distance(km) Time Diff (sec)
1 03/30/2024 07:07:19 75.93, 71.10 71.88 03/30/2024 07:06:08 75.90, 69.69 71.89 38.44 71
2 03/30/2024 07:58:08 -76.13,-122.30 107.92 03/30/2024 07:56:59 -76.11,-122.28 107.94 2.37 69
3 03/30/2024 08:48:54 76.11, 45.08 72.05 03/30/2024 08:48:01 76.14, 45.05 72.08 2.83 53
4 03/30/2024 09:39:39 -76.14,-147.69 107.95 03/30/2024 09:38:57 -76.12,-147.72 107.95 1.53 42
5 03/30/2024 10:30:26 76.16, 19.53 72.07 03/30/2024 10:29:59 76.15, 19.60 72.06 2.35 27
6 03/30/2024 11:21:10 -76.14,-173.08 107.97 03/30/2024 11:20:55 -76.14,-173.17 107.97 2.45 15
7 03/30/2024 12:11:57 76.16, -5.86 72.05 03/30/2024 12:11:57 76.16, -5.84 72.04 0.49 0
8 03/30/2024 13:02:41 -76.14, 161.53 107.99 03/30/2024 13:02:53 -76.15, 161.39 107.99 4.08 12
9 03/30/2024 13:53:28 76.17, -31.25 72.02 03/30/2024 13:53:55 76.17, -31.29 72.03 1.38 27
10 03/30/2024 14:44:13 -76.19, 135.98 107.97 03/30/2024 14:44:51 -76.16, 135.94 108.00 3.28 38
11 03/30/2024 15:34:59 76.17, -56.63 72.00 03/30/2024 15:35:53 76.18, -56.74 72.01 3.24 54
12 03/30/2024 16:25:44 -76.19, 110.60 108.00 03/30/2024 16:26:48 -76.22, 110.66 107.98 3.32 64
13 03/30/2024 17:16:36 76.44, -83.02 72.26 03/30/2024 17:17:46 76.42, -81.34 72.20 43.80 70



Historial Predications of SNOs between FY3D and NOAA-19
